| time (UTC) | temp C | wind direction | speed KPH | gust KPH | rain 1hr cm | rain 24hr cm | rain mn cm | humidity % | barometer mb |
| 20260510060805 | 8 | 279 | 6.4 | 11.3 | 0.00 | 0.23 | 0.00 | 65 | 1006.6 |
| 20260510060305 | 8 | 284 | 4.8 | 20.9 | 0.00 | 0.23 | 0.00 | 65 | 1006.5 |
| 20260510050805 | 9 | 278 | 8.0 | 12.9 | 0.00 | 0.23 | 0.00 | 67 | 1006.4 |
| 20260510050305 | 9 | 288 | 4.8 | 12.9 | 0.00 | 0.23 | 0.00 | 67 | 1006.4 |
| 20260510040805 | 9 | 287 | 4.8 | 9.7 | 0.00 | 0.23 | 0.00 | 68 | 1005.4 |
| 20260510040305 | 9 | 275 | 4.8 | 16.1 | 0.00 | 0.23 | 0.00 | 68 | 1005.4 |
| 20260510030804 | 11 | 279 | 8.0 | 12.9 | 0.00 | 0.23 | 0.23 | 73 | 1004.8 |
| 20260510030305 | 11 | 300 | 4.8 | 24.1 | 0.00 | 0.23 | 0.23 | 73 | 1005.0 |
| 20260510020805 | 11 | 289 | 4.8 | 9.7 | 0.00 | 0.23 | 0.23 | 88 | 1004.1 |
| 20260510010305 | 12 | 244 | 3.2 | 19.3 | 0.00 | 0.23 | 0.23 | 86 | 1002.3 |
| 20260510000804 | 13 | 254 | 4.8 | 9.7 | 0.03 | 0.23 | 0.23 | 84 | 1001.6 |
| 20260510000305 | 13 | 229 | 4.8 | 19.3 | 0.03 | 0.23 | 0.23 | 84 | 1001.5 |
| 20260509220306 | 13 | 220 | 8.0 | 32.2 | 0.23 | 0.23 | 0.23 | 85 | 1001.1 |
| 20260509210805 | 13 | 137 | 4.8 | 20.9 | 0.00 | 0.00 | 0.00 | 74 | 1001.1 |
| 20260509210305 | 13 | 122 | 9.7 | 24.1 | 0.00 | 0.00 | 0.00 | 73 | 1000.7 |
| 20260509200304 | 14 | 160 | 8.0 | 29.0 | 0.00 | 0.00 | 0.00 | 74 | 1001.3 |
| 20260509190804 | 16 | 148 | 16.1 | 29.0 | 0.00 | 0.00 | 0.00 | 69 | 1001.6 |
| 20260509190304 | 16 | 160 | 11.3 | 38.6 | 0.00 | 0.00 | 0.00 | 68 | 1001.8 |
| 20260509180805 | 17 | 178 | 11.3 | 29.0 | 0.00 | 0.00 | 0.00 | 65 | 1001.6 |
| 20260509170306 | 15 | 221 | 8.0 | 20.9 | 0.00 | 0.00 | 0.00 | 74 | 1003.1 |
| 20260509160804 | 13 | 184 | 6.4 | 14.5 | 0.00 | 0.00 | 0.00 | 81 | 1003.8 |
| 20260509150805 | 12 | 219 | 8.0 | 20.9 | 0.00 | 0.00 | 0.00 | 80 | 1004.3 |
| 20260509150305 | 12 | 202 | 8.0 | 20.9 | 0.00 | 0.00 | 0.00 | 80 | 1004.1 |
| 20260509140805 | 13 | 191 | 9.7 | 19.3 | 0.00 | 0.00 | 0.00 | 74 | 1004.8 |
| 20260509140305 | 13 | 179 | 9.7 | 19.3 | 0.00 | 0.00 | 0.00 | 73 | 1004.7 |
| 20260509130805 | 10 | 125 | 4.8 | 19.3 | 0.00 | 0.00 | 0.00 | 71 | 1005.4 |
| 20260509130305 | 10 | 90 | 4.8 | 14.5 | 0.00 | 0.00 | 0.00 | 71 | 1005.3 |
| 20260509120805 | 7 | 127 | 11.3 | 14.5 | 0.00 | 0.00 | 0.00 | 77 | 1005.3 |
| 20260509120305 | 6 | 114 | 6.4 | 14.5 | 0.00 | 0.00 | 0.00 | 79 | 1005.3 |
| 20260509110805 | 2 | 119 | 0.0 | 0.0 | 0.00 | 0.00 | 0.00 | 87 | 1005.5 |
| 20260509110305 | 2 | 119 | 0.0 | 0.0 | 0.00 | 0.00 | 0.00 | 87 | 1005.5 |
| 20260509100805 | 2 | 119 | 0.0 | 0.0 | 0.00 | 0.03 | 0.00 | 85 | 1005.9 |
| 20260509100305 | 2 | 119 | 0.0 | 0.0 | 0.00 | 0.03 | 0.00 | 85 | 1006.0 |
| 20260509090805 | 2 | 119 | 0.0 | 0.0 | 0.00 | 0.03 | 0.00 | 85 | 1006.1 |
| 20260509090305 | 2 | 119 | 0.0 | 0.0 | 0.00 | 0.03 | 0.00 | 85 | 1006.3 |
| 20260509080805 | 3 | 119 | 0.0 | 0.0 | 0.00 | 0.03 | 0.00 | 84 | 1006.1 |
| 20260509080305 | 3 | 119 | 0.0 | 0.0 | 0.00 | 0.03 | 0.00 | 84 | 1006.2 |
| 20260509070805 | 3 | 119 | 0.0 | 0.0 | 0.00 | 0.03 | 0.00 | 80 | 1006.4 |
| 20260509070305 | 3 | 119 | 0.0 | 3.2 | 0.00 | 0.03 | 0.00 | 80 | 1006.5 |